Hourly Weather Cajamarca

Today, 21 September, Monday

Time Temperature Precipitation Wind Pressure Humidity
00:00 +12°C° 0 mm 2 mps 544 mmHg 85%
01:00 +12°C° 0 mm 2 mps 543 mmHg 86%
02:00 +12°C° 0 mm 2 mps 543 mmHg 85%
03:00 +10°C° 0 mm 2 mps 543 mmHg 85%
04:00 +10°C° 0 mm 2 mps 542 mmHg 84%
05:00 +12°C° 0 mm 2 mps 543 mmHg 81%
06:00 +12°C° 0 mm 2 mps 544 mmHg 78%
07:00 +13°C° 0 mm 2 mps 544 mmHg 75%
08:00 +15°C° 0 mm 2 mps 546 mmHg 66%
09:00 +18°C° 0 mm 2 mps 547 mmHg 57%
10:00 +20°C° 0 mm 2 mps 548 mmHg 47%
11:00 +20°C° 0.1 mm 3 mps 548 mmHg 47%
12:00 +21°C° 0.1 mm 3 mps 548 mmHg 47%
13:00 +21°C° 0.1 mm 3 mps 547 mmHg 46%
14:00 +20°C° 0.8 mm 3 mps 546 mmHg 51%
15:00 +19°C° 0.8 mm 3 mps 546 mmHg 56%
16:00 +18°C° 0.8 mm 2 mps 545 mmHg 61%
17:00 +17°C° 0.6 mm 2 mps 545 mmHg 67%
18:00 +15°C° 0.6 mm 1 mps 544 mmHg 74%
19:00 +14°C° 0.6 mm 1 mps 544 mmHg 80%
20:00 +14°C° 0 mm 1 mps 544 mmHg 82%
21:00 +14°C° 0 mm 1 mps 544 mmHg 83%
22:00 +12°C° 0 mm 0 mps 544 mmHg 84%
23:00 +13°C° 0 mm 1 mps 544 mmHg 85%

Tomorrow, 22 September, Tuesday

Time Temperature Precipitation Wind Pressure Humidity
00:00 +13°C° 0 mm 1 mps 544 mmHg 86%
01:00 +13°C° 0 mm 1 mps 544 mmHg 86%
02:00 +12°C° 0 mm 1 mps 543 mmHg 87%
03:00 +12°C° 0 mm 1 mps 543 mmHg 88%
04:00 +12°C° 0 mm 1 mps 543 mmHg 89%
05:00 +12°C° 0 mm 1 mps 543 mmHg 87%
06:00 +13°C° 0 mm 1 mps 544 mmHg 85%
07:00 +13°C° 0 mm 1 mps 544 mmHg 83%
08:00 +15°C° 0 mm 2 mps 546 mmHg 73%
09:00 +17°C° 0 mm 2 mps 547 mmHg 63%
10:00 +19°C° 0 mm 2 mps 548 mmHg 53%
11:00 +19°C° 0.1 mm 2 mps 547 mmHg 53%
12:00 +20°C° 0.1 mm 2 mps 547 mmHg 52%
13:00 +20°C° 0.1 mm 3 mps 546 mmHg 52%
14:00 +19°C° 0.5 mm 2 mps 546 mmHg 56%
15:00 +18°C° 0.5 mm 2 mps 545 mmHg 61%
16:00 +17°C° 0.5 mm 2 mps 544 mmHg 66%
17:00 +16°C° 0.5 mm 1 mps 544 mmHg 71%
18:00 +15°C° 0.5 mm 1 mps 544 mmHg 76%
19:00 +14°C° 0.5 mm 1 mps 544 mmHg 81%
20:00 +14°C° 0.1 mm 1 mps 544 mmHg 82%
21:00 +12°C° 0.1 mm 0 mps 544 mmHg 82%
22:00 +12°C° 0.1 mm 0 mps 544 mmHg 83%
23:00 +12°C° 0.1 mm 0 mps 544 mmHg 83%

Day after tomorrow, 23 September, Wednesday

Time Temperature Precipitation Wind Pressure Humidity
00:00 +12°C° 0.1 mm 0 mps 544 mmHg 83%
01:00 +13°C° 0.1 mm 1 mps 544 mmHg 83%
02:00 +13°C° 0.1 mm 1 mps 544 mmHg 84%
03:00 +11°C° 0.1 mm 0 mps 543 mmHg 85%
04:00 +11°C° 0.1 mm 0 mps 543 mmHg 86%
05:00 +11°C° 0.1 mm 0 mps 544 mmHg 84%
06:00 +12°C° 0.1 mm 0 mps 544 mmHg 83%
07:00 +12°C° 0.1 mm 0 mps 545 mmHg 81%
08:00 +14°C° 0.1 mm 1 mps 545 mmHg 78%
09:00 +15°C° 0.1 mm 1 mps 546 mmHg 74%
10:00 +16°C° 0.1 mm 1 mps 547 mmHg 71%
11:00 +16°C° 0.3 mm 2 mps 546 mmHg 71%
12:00 +16°C° 0.3 mm 2 mps 546 mmHg 71%
13:00 +16°C° 0.3 mm 2 mps 546 mmHg 71%
14:00 +15°C° 0.5 mm 2 mps 545 mmHg 74%
15:00 +15°C° 0.5 mm 2 mps 545 mmHg 77%
16:00 +14°C° 0.5 mm 2 mps 544 mmHg 81%
17:00 +14°C° 0.2 mm 1 mps 544 mmHg 83%
18:00 +13°C° 0.2 mm 1 mps 544 mmHg 85%
19:00 +13°C° 0.2 mm 1 mps 544 mmHg 88%
20:00 +13°C° 0.3 mm 1 mps 545 mmHg 87%
21:00 +13°C° 0.3 mm 1 mps 545 mmHg 87%
22:00 +13°C° 0.3 mm 1 mps 546 mmHg 86%
23:00 +13°C° 0.4 mm 2 mps 545 mmHg 86%

24 September, Thursday

Time Temperature Precipitation Wind Pressure Humidity
00:00 +13°C° 0.4 mm 2 mps 545 mmHg 86%
01:00 +13°C° 0.4 mm 2 mps 545 mmHg 86%
02:00 +12°C° 0.1 mm 2 mps 545 mmHg 86%
03:00 +12°C° 0.1 mm 2 mps 544 mmHg 86%
04:00 +12°C° 0.1 mm 2 mps 544 mmHg 86%
05:00 +12°C° 0.1 mm 2 mps 544 mmHg 85%
06:00 +12°C° 0.1 mm 2 mps 544 mmHg 85%
07:00 +12°C° 0.1 mm 2 mps 545 mmHg 84%
08:00 +13°C° 0.1 mm 2 mps 545 mmHg 81%
09:00 +14°C° 0.1 mm 2 mps 546 mmHg 77%
10:00 +14°C° 0.1 mm 2 mps 547 mmHg 74%
11:00 +16°C° 0.1 mm 3 mps 547 mmHg 69%
12:00 +17°C° 0.1 mm 3 mps 547 mmHg 63%
13:00 +18°C° 0.1 mm 3 mps 547 mmHg 57%
14:00 +18°C° 0.2 mm 3 mps 546 mmHg 58%
15:00 +18°C° 0.2 mm 3 mps 546 mmHg 59%
16:00 +17°C° 0.2 mm 3 mps 545 mmHg 61%
17:00 +16°C° 0.2 mm 2 mps 545 mmHg 69%
18:00 +14°C° 0.2 mm 1 mps 544 mmHg 77%
19:00 +13°C° 0.2 mm 1 mps 544 mmHg 85%
20:00 +12°C° 0 mm 1 mps 544 mmHg 85%
21:00 +12°C° 0 mm 1 mps 544 mmHg 86%
22:00 +12°C° 0 mm 1 mps 545 mmHg 86%
23:00 +11°C° 0 mm 1 mps 544 mmHg 86%

25 September, Friday

Time Temperature Precipitation Wind Pressure Humidity
00:00 +11°C° 0 mm 1 mps 544 mmHg 86%
01:00 +11°C° 0 mm 1 mps 544 mmHg 86%
02:00 +11°C° 0 mm 1 mps 543 mmHg 86%
03:00 +9°C° 0 mm 2 mps 543 mmHg 85%
04:00 +9°C° 0 mm 2 mps 543 mmHg 85%
05:00 +10°C° 0 mm 2 mps 543 mmHg 81%
06:00 +10°C° 0 mm 2 mps 544 mmHg 78%
07:00 +12°C° 0 mm 2 mps 544 mmHg 75%
08:00 +14°C° 0 mm 2 mps 546 mmHg 66%
09:00 +17°C° 0 mm 2 mps 547 mmHg 57%
10:00 +19°C° 0 mm 2 mps 549 mmHg 48%
11:00 +19°C° 0.1 mm 2 mps 549 mmHg 48%
12:00 +20°C° 0.1 mm 3 mps 548 mmHg 48%
13:00 +20°C° 0.1 mm 3 mps 548 mmHg 48%
14:00 +19°C° 0.6 mm 3 mps 547 mmHg 55%
15:00 +18°C° 0.6 mm 2 mps 546 mmHg 62%
16:00 +16°C° 0.6 mm 2 mps 544 mmHg 70%
17:00 +15°C° 0.4 mm 2 mps 544 mmHg 74%
18:00 +14°C° 0.4 mm 1 mps 544 mmHg 79%
19:00 +13°C° 0.4 mm 1 mps 544 mmHg 83%
20:00 +13°C° 0.1 mm 1 mps 544 mmHg 85%
21:00 +13°C° 0.1 mm 1 mps 544 mmHg 87%
22:00 +12°C° 0.1 mm 1 mps 544 mmHg 88%
23:00 +11°C° 0 mm 0 mps 544 mmHg 89%

26 September, Saturday

Time Temperature Precipitation Wind Pressure Humidity
00:00 +10°C° 0 mm 0 mps 543 mmHg 89%
01:00 +10°C° 0 mm 0 mps 543 mmHg 90%
02:00 +10°C° 0 mm 0 mps 543 mmHg 90%
03:00 +10°C° 0 mm 0 mps 543 mmHg 90%
04:00 +9°C° 0 mm 0 mps 542 mmHg 90%
05:00 +10°C° 0 mm 0 mps 543 mmHg 87%
06:00 +11°C° 0 mm 0 mps 544 mmHg 84%
07:00 +11°C° 0 mm 0 mps 544 mmHg 81%
08:00 +14°C° 0 mm 1 mps 545 mmHg 72%
09:00 +18°C° 0 mm 1 mps 547 mmHg 62%
10:00 +19°C° 0 mm 2 mps 548 mmHg 53%
11:00 +19°C° 0.3 mm 2 mps 547 mmHg 54%
12:00 +19°C° 0.3 mm 2 mps 547 mmHg 54%
13:00 +19°C° 0.3 mm 2 mps 546 mmHg 55%
14:00 +18°C° 0.6 mm 2 mps 545 mmHg 58%
15:00 +17°C° 0.6 mm 2 mps 545 mmHg 62%
16:00 +17°C° 0.6 mm 2 mps 544 mmHg 65%
17:00 +16°C° 0.4 mm 2 mps 544 mmHg 72%
18:00 +14°C° 0.4 mm 1 mps 543 mmHg 78%
19:00 +13°C° 0.4 mm 1 mps 543 mmHg 84%
20:00 +12°C° 0.3 mm 0 mps 543 mmHg 86%
21:00 +12°C° 0.3 mm 0 mps 543 mmHg 87%
22:00 +11°C° 0.3 mm 0 mps 544 mmHg 88%
23:00 +11°C° 0.1 mm 0 mps 543 mmHg 89%
Show more